CW5391 Weather Reports


Display with metric or nautical units.
time (UTC)temp
F
wind
direction
speed
MPH
gust
MPH
rain 1hr
in
rain 24hr
in
rain mn
in
humidity
%
barometer
mb
20260507022811 43 301 0.0 0.0 0.02 1.21 1.21 97 1005.8
20260507022323 43 301 0.0 1.0 0.02 1.21 1.21 97 1005.8
20260507021816 43 301 0.0 2.0 0.02 1.21 1.21 97 1005.8
20260507021328 43 315 0.0 2.0 0.04 1.21 1.21 97 1005.8
20260507020901 43 315 1.0 2.0 0.04 1.21 1.21 97 1005.8
20260507020318 43 307 0.0 1.0 0.04 1.21 1.21 97 1005.8
20260507015832 43 307 1.0 2.0 0.04 1.21 1.21 97 1005.8
20260507015326 43 307 1.0 2.0 0.04 1.21 1.21 96 1005.8
20260507014823 43 306 1.0 3.0 0.03 1.20 1.20 96 1005.8
20260507014344 43 318 2.0 3.0 0.03 1.20 1.20 97 1005.8
20260507013822 43 323 1.0 3.0 0.04 1.20 1.20 97 1005.8
20260507013331 43 323 1.0 3.0 0.04 1.20 1.20 97 1005.8
20260507012839 43 308 0.0 1.0 0.03 1.19 1.19 97 1005.7
20260507012322 43 308 0.0 1.0 0.03 1.19 1.19 97 1005.7
20260507011834 43 308 327.0 0.0 0.03 1.19 1.19 96 1005.7
20260507011330 0 0.0 0.0 0.01 1.17 1.17 1005.7
20260507010856 0 0.0 0.0 0.01 1.17 1.17 1005.7
20260507010331 0 0.0 0.0 0.01 1.17 1.17 1005.7
20260507005821 43 308 2.0 4.0 0.01 1.17 1.17 96 1005.5
20260507004844 43 308 2.0 4.0 0.01 1.17 1.17 96 1005.5
20260507004326 43 316 1.0 6.0 0.01 1.17 1.17 96 1005.3
20260507003810 43 317 2.0 6.0 0.00 1.16 1.16 96 1005.3
20260507003327 43 313 2.0 6.0 0.01 1.16 1.16 96 1005.3
20260507002836 43 355 4.0 6.0 0.01 1.16 1.16 96 1004.9
20260507002327 43 331 327.0 3.0 0.01 1.16 1.16 96 1004.9
20260507001841 0 0.0 0.0 0.01 1.16 1.16 1004.9
20260507001329 0 0.0 0.0 0.01 1.16 1.16 1004.6
20260507000823 0 0.0 0.0 0.01 1.16 1.16 1004.6
20260507000317 0 0.0 0.0 0.01 1.16 1.16 1004.6
20260506235821 0 0.0 0.0 0.01 1.16 1.16 1004.4
20260506235315 0 0.0 0.0 0.01 1.16 1.16 1004.4
20260506234827 43 14 2.0 5.0 0.02 1.16 1.16 96 1004.4
20260506233810 43 311 1.0 6.0 0.02 1.16 1.16 96 1004.3
20260506233323 43 319 2.0 7.0 0.01 1.15 1.15 96 1004.3
20260506232823 43 325 4.0 8.0 0.01 1.15 1.15 96 1003.8
20260506232329 43 345 4.0 8.0 0.01 1.15 1.15 96 1003.8
20260506231826 43 319 3.0 9.0 0.01 1.15 1.15 96 1003.8
20260506231313 43 355 4.0 11.0 0.01 1.15 1.15 96 1003.7
20260506230840 43 327 4.0 11.0 0.01 1.15 1.15 96 1003.7
20260506230330 43 330 6.0 11.0 0.03 1.15 1.15 96 1003.7
20260506225817 43 324 5.0 11.0 0.03 1.15 1.15 96 1003.4
20260506225316 43 335 5.0 13.0 0.03 1.15 1.15 96 1003.4
20260506224828 43 360 4.0 13.0 0.02 1.14 1.14 96 1003.4
20260506224315 43 307 4.0 9.0 0.02 1.14 1.14 96 1003.4
20260506223819 44 309 5.0 9.0 0.02 1.14 1.14 96 1003.4
20260506223344 44 5 4.0 9.0 0.02 1.14 1.14 96 1003.4
20260506222817 44 309 3.0 8.0 0.02 1.14 1.14 96 1003.1
20260506222347 44 355 3.0 8.0 0.02 1.14 1.14 96 1003.1
20260506221823 44 315 3.0 7.0 0.02 1.14 1.14 96 1003.1
20260506221338 44 338 3.0 10.0 0.02 1.14 1.14 96 1002.8
20260506220819 44 338 327.0 3.0 0.00 1.12 1.12 1002.8
20260506220336 0 0.0 0.0 0.00 1.12 1.12 1002.8
20260506215822 0 0.0 0.0 0.00 1.12 1.12 1002.6
20260506215314 0 0.0 0.0 0.00 1.12 1.12 1002.6
20260506214315 44 321 3.0 7.0 0.00 1.12 1.12 96 1002.5
20260506213814 44 360 3.0 10.0 0.00 1.12 1.12 96 1002.5
20260506213344 44 299 4.0 10.0 0.01 1.12 1.12 96 1002.5
20260506212837 44 316 5.0 10.0 0.01 1.12 1.12 96 1002.5
20260506212340 44 340 4.0 9.0 0.01 1.12 1.12 96 1002.5
20260506211829 44 279 4.0 10.0 0.02 1.12 1.12 96 1002.5
20260506211349 44 348 3.0 10.0 0.02 1.12 1.12 96 1002.2
20260506210825 44 286 3.0 9.0 0.02 1.12 1.12 96 1002.2
20260506210327 44 325 4.0 8.0 0.02 1.12 1.12 96 1002.2
20260506205820 44 314 4.0 8.0 0.02 1.12 1.12 96 1002.2
20260506205318 44 333 3.0 8.0 0.02 1.12 1.12 96 1002.2
20260506204829 44 11 4.0 8.0 0.02 1.12 1.12 95 1002.2
20260506204316 44 331 4.0 8.0 0.02 1.12 1.12 95 1002.3
20260506203825 44 348 4.0 8.0 0.06 1.12 1.12 95 1002.3
20260506203325 44 305 2.0 7.0 0.05 1.11 1.11 96 1002.3
20260506202819 44 26 1.0 7.0 0.05 1.11 1.11 96 1002.4
20260506202352 44 355 4.0 7.0 0.05 1.11 1.11 96 1002.4
20260506201837 44 289 2.0 6.0 0.04 1.10 1.10 95 1002.4
20260506201324 44 9 4.0 7.0 0.04 1.10 1.10 96 1002.4
20260506200821 44 15 2.0 9.0 0.06 1.10 1.10 96 1002.4
20260506200331 44 9 4.0 11.0 0.10 1.10 1.10 96 1002.4
20260506195840 44 336 3.0 11.0 0.12 1.10 1.10 96 1002.6
20260506195326 44 325 5.0 9.0 0.15 1.10 1.10 96 1002.6
20260506194836 44 296 2.0 9.0 0.17 1.10 1.10 96 1002.6
20260506194321 44 345 5.0 11.0 0.18 1.10 1.10 96 1002.6
20260506193837 0 0.0 0.0 0.15 1.06 1.06 1002.6
20260506193331 0 0.0 0.0 0.16 1.06 1.06 1002.6
20260506192815 0 0.0 0.0 0.18 1.06 1.06 1002.5
20260506192323 44 315 2.0 11.0 0.20 1.06 1.06 96 1002.5
20260506191830 44 315 2.0 11.0 0.22 1.06 1.06 96 1002.5
20260506191319 44 275 2.0 11.0 0.24 1.06 1.06 96 1002.4
20260506190814 44 302 3.0 7.0 0.23 1.03 1.03 96 1002.4
20260506190323 44 308 3.0 11.0 0.20 0.99 0.99 96 1002.4
20260506185831 44 49 3.0 12.0 0.19 0.97 0.97 95 1002.4
20260506185338 44 355 7.0 12.0 0.18 0.95 0.95 95 1002.4
20260506184822 44 338 6.0 11.0 0.18 0.93 0.93 96 1002.4
20260506184345 44 336 4.0 9.0 0.20 0.92 0.92 96 1002.5
20260506183827 44 15 3.0 10.0 0.19 0.91 0.91 96 1002.5
20260506183337 44 290 6.0 14.0 0.20 0.90 0.90 95 1002.5
20260506182853 44 323 8.0 14.0 0.19 0.88 0.88 95 1002.5
20260506182332 45 306 5.0 12.0 0.18 0.85 0.85 95 1002.5
20260506181822 45 360 5.0 12.0 0.18 0.83 0.83 95 1002.5
20260506181350 45 360 7.0 12.0 0.18 0.82 0.82 95 1002.1
20260506180845 45 342 4.0 12.0 0.18 0.80 0.80 95 1002.1
20260506180314 45 347 7.0 14.0 0.18 0.79 0.79 95 1002.1
20260506175821 46 348 7.0 14.0 0.18 0.78 0.78 95 1002.6
20260506175345 46 148 3.0 13.0 0.18 0.77 0.77 96 1002.6
20260506174816 46 325 6.0 13.0 0.16 0.74 0.74 96 1002.6
20260506174338 46 26 4.0 7.0 0.16 0.72 0.72 96 1002.1
20260506173844 46 343 2.0 5.0 0.17 0.72 0.72 96 1002.1
20260506173312 46 344 2.0 6.0 0.16 0.70 0.70 96 1002.1
20260506172821 46 292 3.0 6.0 0.15 0.68 0.68 96 1002.5
20260506172354 46 300 2.0 7.0 0.14 0.67 0.67 96 1002.5
20260506171844 46 360 4.0 7.0 0.19 0.65 0.65 96 1002.5
20260506171314 46 311 3.0 5.0 0.17 0.63 0.63 96 1002.6
20260506170824 46 45 2.0 6.0 0.16 0.62 0.62 96 1002.6
20260506170332 46 360 4.0 9.0 0.15 0.61 0.61 96 1002.6
20260506165820 46 355 4.0 11.0 0.13 0.59 0.59 96 1003.1
20260506165313 46 5 5.0 11.0 0.12 0.58 0.58 95 1003.1
20260506164819 47 12 4.0 10.0 0.12 0.58 0.58 95 1003.1
20260506164323 47 346 4.0 10.0 0.11 0.56 0.56 95 1003.0
20260506163815 48 321 4.0 6.0 0.12 0.55 0.55 96 1003.0
20260506163343 48 355 3.0 6.0 0.12 0.54 0.54 96 1003.0
20260506162826 48 337 2.0 4.0 0.12 0.53 0.53 96 1003.0
20260506162318 48 355 327.0 2.0 0.12 0.52 0.52 96 1003.0
20260506161827 0 0.0 0.0 0.08 0.46 0.46 1003.0
20260506161344 0 0.0 0.0 0.09 0.46 0.46 1003.1
20260506160814 0 0.0 0.0 0.10 0.46 0.46 1003.1
20260506160340 49 314 2.0 5.0 0.11 0.46 0.46 96 1003.1
20260506155824 49 314 2.0 5.0 0.13 0.46 0.46 96 1003.3
20260506155316 49 336 2.0 5.0 0.15 0.46 0.46 96 1003.3
20260506154843 49 336 2.0 4.0 0.17 0.46 0.46 96 1003.3
20260506154327 49 355 0.0 1.0 0.18 0.45 0.45 96 1003.2
20260506153815 49 355 0.0 2.0 0.18 0.43 0.43 96 1003.2
20260506153359 49 355 0.0 2.0 0.19 0.42 0.42 95 1003.2
20260506152812 49 355 0.0 2.0 0.19 0.41 0.41 96 1003.5
20260506152324 49 355 1.0 2.0 0.18 0.39 0.39 96 1003.5
20260506151839 49 355 0.0 2.0 0.19 0.38 0.38 96 1003.5
20260506151327 49 355 1.0 2.0 0.20 0.37 0.37 96 1003.7
20260506150835 50 355 0.0 2.0 0.19 0.36 0.36 96 1003.7
20260506150339 50 355 0.0 3.0 0.18 0.34 0.34 96 1003.7
20260506145816 50 355 1.0 5.0 0.18 0.33 0.33 96 1004.2
20260506145324 50 325 2.0 5.0 0.16 0.31 0.31 96 1004.2
20260506144833 50 306 2.0 5.0 0.15 0.29 0.29 95 1004.2
20260506144339 50 319 2.0 4.0 0.13 0.27 0.27 95 1004.2
20260506143812 50 306 2.0 5.0 0.12 0.25 0.25 95 1004.2
20260506143320 51 350 3.0 6.0 0.11 0.23 0.23 95 1004.2
20260506142828 51 342 2.0 6.0 0.11 0.22 0.22 95 1004.2
20260506142329 52 301 2.0 4.0 0.10 0.20 0.20 96 1004.2
20260506141824 52 342 1.0 4.0 0.08 0.17 0.17 96 1004.2
20260506141329 52 342 1.0 4.0 0.08 0.17 0.17 96 1004.0
20260506140823 52 342 1.0 3.0 0.08 0.16 0.16 96 1004.0
20260506140333 52 325 1.0 3.0 0.08 0.15 0.15 96 1004.0
20260506135844 52 313 1.0 4.0 0.08 0.15 0.15 96 1003.9
20260506135318 52 334 2.0 4.0 0.09 0.15 0.15 96 1003.9
20260506134822 52 304 1.0 3.0 0.08 0.14 0.14 96 1003.9
20260506134325 53 311 1.0 3.0 0.08 0.13 0.13 96 1003.7
20260506133854 53 336 1.0 4.0 0.08 0.13 0.13 95 1003.7
20260506133325 53 311 2.0 4.0 0.08 0.12 0.12 96 1003.7
20260506132832 53 306 0.0 3.0 0.07 0.11 0.11 96 1003.8
20260506132341 53 322 1.0 4.0 0.07 0.10 0.10 96 1003.8
20260506131814 53 325 1.0 4.0 0.06 0.09 0.09 96 1003.8
20260506131325 53 350 1.0 3.0 0.05 0.08 0.08 96 1004.0
20260506130850 53 323 2.0 3.0 0.05 0.08 0.08 96 1004.0
20260506130350 53 283 0.0 4.0 0.04 0.07 0.07 96 1004.0
20260506125835 53 5 2.0 5.0 0.04 0.07 0.07 96 1004.2
20260506125330 53 308 2.0 5.0 0.04 0.06 0.06 95 1004.2
20260506124839 53 307 3.0 5.0 0.04 0.06 0.06 95 1004.2
20260506124330 53 290 2.0 7.0 0.03 0.05 0.05 95 1004.7
20260506123819 53 349 3.0 8.0 0.02 0.04 0.04 95 1004.7
20260506123345 54 308 3.0 8.0 0.02 0.04 0.04 95 1004.7
20260506122835 54 24 4.0 5.0 0.02 0.04 0.04 95 1004.4
20260506122311 54 342 3.0 5.0 0.01 0.03 0.03 95 1004.4
20260506121825 54 319 2.0 4.0 0.01 0.03 0.03 95 1004.4
20260506121333 55 340 2.0 5.0 0.01 0.03 0.03 96 1003.9
20260506120829 55 15 2.0 5.0 0.01 0.03 0.03 96 1003.9
20260506120334 55 355 1.0 4.0 0.01 0.03 0.03 96 1003.9
20260506115838 55 336 2.0 5.0 0.01 0.03 0.03 96 1004.1
20260506115330 55 290 3.0 6.0 0.00 0.02 0.02 96 1004.1
20260506114821 55 304 3.0 6.0 0.00 0.02 0.02 96 1004.1
20260506114318 55 300 0.0 3.0 0.00 0.02 0.02 96 1004.1
20260506113843 55 300 0.0 3.0 0.00 0.02 0.02 96 1004.1
20260506113347 55 324 0.0 3.0 0.00 0.02 0.02 96 1004.1
20260506112821 55 324 0.0 3.0 0.00 0.02 0.02 96 1003.8
20260506112315 54 324 0.0 3.0 0.00 0.02 0.02 96 1003.8
20260506111823 54 103 1.0 3.0 0.00 0.02 0.02 96 1003.8
20260506111314 54 103 0.0 3.0 0.00 0.02 0.02 96 1004.2
20260506110819 54 90 0.0 0.0 0.00 0.02 0.02 96 1004.2
20260506110331 54 90 0.0 0.0 0.00 0.02 0.02 96 1004.2
20260506105842 54 90 0.0 0.0 0.00 0.02 0.02 96 1003.7
20260506105342 54 90 0.0 0.0 0.00 0.02 0.02 96 1003.7
20260506104810 54 90 0.0 0.0 0.00 0.02 0.02 96 1003.7
20260506104346 54 90 0.0 0.0 0.00 0.02 0.02 95 1003.6
20260506103814 54 90 0.0 0.0 0.00 0.02 0.02 95 1003.6
20260506103344 54 90 0.0 0.0 0.00 0.02 0.02 95 1003.6
20260506102829 54 90 0.0 0.0 0.00 0.02 0.02 96 1003.6
20260506102326 54 90 0.0 0.0 0.00 0.02 0.02 95 1003.6
20260506101813 54 90 0.0 0.0 0.00 0.02 0.02 95 1003.6
20260506101323 54 90 0.0 0.0 0.00 0.02 0.02 95 1003.5
20260506100832 54 90 0.0 0.0 0.00 0.02 0.02 95 1003.5
20260506100314 53 90 0.0 0.0 0.00 0.02 0.02 95 1003.5
20260506095818 53 90 0.0 0.0 0.00 0.02 0.02 95 1003.6
20260506095321 53 90 327.0 0.0 0.00 0.02 0.02 94 1003.6
20260506094847 0 0.0 0.0 0.00 0.02 0.02 1003.6
20260506094332 0 0.0 0.0 0.00 0.02 0.02 1003.4
20260506093837 0 0.0 0.0 0.00 0.02 0.02 1003.4
20260506093315 54 90 0.0 0.0 0.00 0.02 0.02 94 1003.4
20260506092823 54 90 0.0 0.0 0.00 0.02 0.02 94 1003.7
20260506092328 54 90 0.0 0.0 0.00 0.02 0.02 93 1003.7
20260506091820 54 90 0.0 0.0 0.00 0.02 0.02 93 1003.7
20260506091326 54 90 0.0 0.0 0.00 0.02 0.02 93 1003.6
20260506090835 54 90 0.0 0.0 0.00 0.02 0.02 94 1003.6
20260506090340 54 90 0.0 0.0 0.00 0.02 0.02 94 1003.6
20260506085814 55 90 0.0 0.0 0.00 0.02 0.02 94 1003.8
20260506085324 55 90 0.0 0.0 0.00 0.02 0.02 94 1003.8
20260506084818 55 90 0.0 0.0 0.00 0.02 0.02 94 1003.8
20260506084319 55 90 0.0 0.0 0.00 0.02 0.02 94 1004.2
20260506083843 55 90 0.0 0.0 0.00 0.02 0.02 94 1004.2
20260506083319 55 90 0.0 0.0 0.00 0.02 0.02 93 1004.2
20260506082812 55 90 0.0 0.0 0.00 0.02 0.02 93 1004.1
20260506082314 56 90 0.0 0.0 0.00 0.02 0.02 93 1004.1
20260506081827 56 90 0.0 0.0 0.00 0.02 0.02 94 1004.1
20260506081407 56 90 0.0 0.0 0.00 0.02 0.02 94 1004.2
20260506080827 56 90 0.0 0.0 0.00 0.02 0.02 95 1004.2
20260506080332 56 90 0.0 0.0 0.00 0.02 0.02 95 1004.2
20260506073315 56 90 0.0 0.0 0.00 0.02 0.02 94 1004.3
20260506072826 56 90 0.0 0.0 0.00 0.02 0.02 94 1004.4
20260506072350 56 90 0.0 0.0 0.00 0.02 0.02 95 1004.4
20260506071817 56 90 327.0 0.0 0.00 0.02 0.02 94 1004.4
20260506071319 0 0.0 0.0 0.00 0.02 0.02 1004.3
20260506070846 0 0.0 0.0 0.00 0.02 0.02 1004.3
20260506070331 0 0.0 0.0 0.00 0.02 0.02 1004.3
20260506062318 57 106 0.0 0.0 0.00 0.02 0.02 93 1004.5
20260506061826 57 106 0.0 0.0 0.00 0.02 0.02 93 1004.5
20260506061353 57 106 0.0 2.0 0.00 0.02 0.02 93 1004.5
20260506060840 57 106 0.0 3.0 0.00 0.02 0.02 93 1004.5
20260506060330 57 106 1.0 3.0 0.00 0.02 0.02 92 1004.5
20260506051318 59 44 1.0 2.0 0.02 0.02 0.02 91 1005.3
20260506050840 59 44 1.0 2.0 0.02 0.02 0.02 89 1005.3
20260506050326 59 102 2.0 2.0 0.02 0.02 0.02 89 1005.3
20260506044830 60 102 1.0 2.0 0.02 0.02 0.02 86 1005.2
20260506044317 60 102 1.0 2.0 0.01 0.01 0.01 85 1004.8
20260506043841 61 102 0.0 2.0 0.00 0.00 0.00 84 1004.8
20260506043315 61 102 1.0 2.0 0.00 0.00 0.00 83 1004.8
20260506042853 61 126 0.0 3.0 0.00 0.00 0.00 82 1004.8
20260506042332 61 126 1.0 3.0 0.00 0.00 0.00 81 1004.8
20260506041816 61 78 0.0 2.0 0.00 0.00 0.00 80 1004.8
20260506041340 61 78 0.0 2.0 0.00 0.00 0.00 81 1004.8
20260506040842 61 151 1.0 2.0 0.00 0.00 0.00 80 1004.8
20260506040326 61 89 0.0 1.0 0.00 0.00 0.00 80 1004.8
20260506035815 61 89 1.0 2.0 0.00 0.00 0.00 80 1004.6
20260506035322 61 89 1.0 2.0 0.00 0.00 0.00 80 1004.6
20260506034820 61 35 1.0 2.0 0.00 0.00 0.00 80 1004.6
20260506034344 61 35 1.0 2.0 0.00 0.00 0.00 80 1004.6
20260506033821 61 107 1.0 2.0 0.00 0.00 0.00 80 1004.6
20260506033333 62 107 0.0 2.0 0.00 0.00 0.00 78 1004.6
20260506032815 62 107 0.0 4.0 0.00 0.00 0.00 78 1004.3
20260506032328 62 129 1.0 4.0 0.00 0.00 0.00 78 1004.3
20260506031815 62 150 1.0 4.0 0.00 0.00 0.00 76 1004.3
20260506031344 62 103 0.0 1.0 0.00 0.00 0.00 76 1004.2
20260506030828 62 103 0.0 2.0 0.00 0.00 0.00 77 1004.2
20260506030325 62 103 1.0 3.0 0.00 0.00 0.00 75 1004.2
20260506025845 62 138 1.0 3.0 0.00 0.00 0.00 75 1004.2
20260506025358 62 147 1.0 3.0 0.00 0.00 0.00 76 1004.2
20260506024833 62 142 2.0 3.0 0.00 0.00 0.00 76 1004.2
20260506024323 62 147 0.0 2.0 0.00 0.00 0.00 76 1004.2
20260506023830 62 147 0.0 2.0 0.00 0.00 0.00 76 1004.2
20260506023339 62 131 2.0 2.0 0.00 0.00 0.00 75 1004.2